[[{"header":{"parameterUnit":"m.s-1","parameterCategory":1,"la1":30.2992,"la2":30.254,"lo1":-89.0895,"lo2":-89.0443,"dy":0.0025,"dx":0.0025,"nx":19,"ny":19,"refTime":"2026-04-07T03:00:00:Z","depth":0,"parameterNumber":2,"parameterNumberName":"U-component_of_WINDS"},"data":[0,0,0,-6.4917,-6.4921,-6.5063,-6.5063,-6.5299,-6.5301,0,0,0,0,0,0,0,0,0,0,0,-6.4907,-6.4909,-6.4917,-6.4921,-6.5063,-6.5063,-6.5298,-6.5301,0,0,0,0,0,0,0,0,0,0,0,-6.4905,-6.4909,-6.4912,-6.4922,-6.5063,-6.5063,-6.5298,-6.5172,0,0,0,0,0,0,0,0,0,0,-6.5024,-6.5046,-6.4908,-6.4912,-6.4923,-6.5063,-6.5063,-6.5165,-6.518,-6.5257,0,-6.5334,0,-6.5322,-6.5321,-6.5322,0,0,0,-6.4897,-6.5034,-6.5043,-6.4912,-6.4924,-6.5063,-6.4992,-6.5172,-6.5189,-6.5278,-6.5337,-6.5344,-6.5326,-6.5322,-6.5324,-6.5851,-6.5854,0,0,-6.489,-6.495,-6.5032,-6.5056,-6.5036,-6.4988,-6.4997,-6.5182,-6.5251,-6.5338,-6.5349,-6.533,-6.5324,-6.5327,-6.5847,-6.5852,0,0,0,-6.4883,-6.4945,-6.4949,-6.5048,-6.5069,-6.4993,-6.5003,-6.5243,-6.5239,-6.5351,-6.5333,-6.5326,-6.533,-6.5843,-6.5849,-6.6083,0,0,0,-6.4877,-6.4941,-6.4947,-6.4985,-6.5067,-6.5158,-6.5061,-6.5226,-6.5245,-6.5331,-6.5326,-6.5332,-6.5839,-6.5846,-6.6068,-6.6185,0,0,0,-6.4887,-6.4941,-6.4973,-6.4988,-6.5051,-6.5153,-6.5159,-6.5229,-6.5235,-6.5322,-6.5333,-6.5836,-6.5845,-6.6055,-6.6162,-6.6341,0,0,0,-6.4914,-6.518,-6.4978,-6.5268,-6.505,-6.5297,-6.5157,-6.5338,-6.544,-6.5328,-6.584,-6.5848,-6.6051,-6.6148,-6.6327,-6.6503,-6.6581,0,0,-6.5283,-6.5226,-6.5392,-6.5215,-6.5514,-6.527,-6.5603,-6.564,-6.5594,-6.5768,-6.578,-6.6073,-6.6161,-6.6338,-6.7,-6.7063,0,0,0,-6.5529,-6.5649,-6.5715,-6.5815,-6.585,-6.5889,-6.5869,-6.5883,-6.6027,-6.5695,-6.6184,-6.6234,-6.6336,-6.6417,-6.6471,-6.6554,-6.5888,-6.5887,-6.5886,-6.6137,-6.6063,-6.6333,-6.6277,-6.6376,-6.6353,-6.6426,-6.6441,-6.6338,-6.6455,-6.6506,-6.6917,-6.7014,-6.7054,-6.7142,-6.6592,-6.6593,-6.6594,-6.6595,-6.6671,-6.6829,-6.6686,-6.6896,-6.6817,-6.6992,-6.6981,-6.6902,-6.7055,-6.6871,-6.6957,-6.6764,-6.7125,-6.7198,-6.6612,-6.6609,-6.6606,-6.6605,-6.6604,-6.7061,-6.7124,-6.7136,-6.7274,-6.7389,-6.7322,-6.7476,-6.7398,-6.7326,-6.7412,-6.7458,-6.7454,-6.744,-6.7439,-6.744,-6.7442,-6.7443,-6.7444,-6.7445,-6.7462,-6.7467,-6.7606,-6.7666,-6.772,-6.7782,-6.7763,-6.7814,-6.7852,-6.7783,-6.7783,-6.767,-6.7174,-6.7051,-6.7467,-6.7463,-6.746,-6.7458,-6.7457,-6.8031,-6.789,-6.8104,-6.8159,-6.8223,-6.8343,-6.8242,-6.8354,-6.8386,-6.8465,-6.8333,-6.7978,-6.7915,-6.7872,-6.777,-6.8347,-6.8347,-6.8347,-6.8347,-6.8361,-6.8321,-6.8522,-6.8615,-6.8697,-6.8628,-6.8874,-6.8863,-6.8828,-6.8844,-6.8749,-6.8607,-6.8566,-6.8527,-6.847,-6.8373,-6.9091,-6.9092,-6.9092,-6.8707,-6.8671,-6.8895,-6.8859,-6.8903,-6.8944,-6.9174,-6.9287,-6.9219,-6.9121,-6.8854,-6.8823,-6.8592,-6.8521,-6.8417,-6.833,-6.8151,0,0]},{"header":{"parameterUnit":"m.s-1","parameterCategory":1,"la1":30.2992,"la2":30.254,"lo1":-89.0895,"lo2":-89.0443,"dy":0.0025,"dx":0.0025,"nx":19,"ny":19,"refTime":"2026-04-07T03:00:00:Z","depth":0,"parameterNumber":3,"parameterNumberName":"V-component_of_WINDS"},"data":[0,0,0,1.8404,1.8404,1.8405,1.8405,1.8403,1.8403,0,0,0,0,0,0,0,0,0,0,0,1.8403,1.8403,1.8404,1.8404,1.8405,1.8405,1.8403,1.8403,0,0,0,0,0,0,0,0,0,0,0,1.8403,1.8403,1.8403,1.8404,1.8405,1.8405,1.8403,1.8403,0,0,0,0,0,0,0,0,0,0,1.8403,1.8401,1.8403,1.8403,1.8404,1.8405,1.8405,1.8403,1.8403,1.8401,0,1.84,0,1.8402,1.8402,1.8402,0,0,0,1.8405,1.8401,1.8402,1.8403,1.8404,1.8405,1.8405,1.8403,1.8403,1.8401,1.84,1.84,1.8401,1.8402,1.8402,1.8394,1.8394,0,0,1.8405,1.8402,1.8402,1.8402,1.8403,1.8405,1.8405,1.8403,1.8401,1.84,1.84,1.8401,1.8402,1.8402,1.8394,1.8394,0,0,0,1.8404,1.8402,1.8404,1.8402,1.8403,1.8405,1.8405,1.8401,1.8402,1.84,1.8401,1.8402,1.8402,1.8394,1.8394,1.8389,0,0,0,1.8404,1.8402,1.8404,1.8402,1.8403,1.8402,1.8403,1.8402,1.8402,1.8401,1.8402,1.8402,1.8394,1.8394,1.8389,1.8387,0,0,0,1.8403,1.8402,1.8402,1.8402,1.8402,1.8402,1.8403,1.8402,1.8403,1.8402,1.8402,1.8394,1.8394,1.839,1.8387,1.8384,0,0,0,1.8401,1.8396,1.8401,1.8396,1.8402,1.84,1.8403,1.8401,1.84,1.8402,1.8394,1.8394,1.839,1.8387,1.8384,1.8381,1.8379,0,0,1.8393,1.8395,1.8392,1.8397,1.8394,1.84,1.8395,1.8396,1.8397,1.8395,1.8394,1.8389,1.8387,1.8384,1.8372,1.8371,0,0,0,1.8389,1.8387,1.8386,1.8386,1.8388,1.8389,1.8391,1.8392,1.839,1.8396,1.8388,1.8386,1.8385,1.8383,1.8382,1.8381,1.8393,1.8393,1.8393,1.8372,1.8377,1.8373,1.8378,1.8377,1.8381,1.8381,1.8382,1.8384,1.8382,1.8381,1.8374,1.8372,1.8371,1.837,1.838,1.838,1.838,1.838,1.8361,1.8359,1.8365,1.8364,1.8368,1.8366,1.837,1.8372,1.8371,1.8375,1.8373,1.8377,1.837,1.8369,1.838,1.838,1.838,1.838,1.838,1.835,1.835,1.8352,1.8354,1.8354,1.8359,1.8358,1.8362,1.8365,1.8364,1.8363,1.8364,1.8364,1.8364,1.8364,1.8364,1.8364,1.8364,1.8364,1.8337,1.834,1.834,1.8343,1.8344,1.8346,1.8351,1.8352,1.8354,1.8357,1.8357,1.836,1.8369,1.8371,1.8363,1.8363,1.8363,1.8363,1.8363,1.8323,1.8327,1.8326,1.8328,1.8333,1.8334,1.834,1.8342,1.8343,1.8343,1.8347,1.8353,1.8355,1.8356,1.8357,1.8346,1.8346,1.8346,1.8346,1.8313,1.8315,1.8316,1.8319,1.8321,1.8328,1.8326,1.8331,1.8336,1.8337,1.8339,1.8342,1.8343,1.8344,1.8345,1.8346,1.8333,1.8333,1.8333,1.8304,1.8307,1.8305,1.8312,1.8317,1.8321,1.832,1.8322,1.8328,1.8332,1.8338,1.8338,1.8343,1.8344,1.8346,1.8348,1.8351,0,0]}]]